Simultaneous Nadir Overpasses (SNOs) Predictions

Prediction of SNOs between NOAA-19 and TERRA Satellite Orbit:

Table of predicted SNOs for the next 14.0 days since TLE Epoch: 5/18/2016
Index Date (NOAA-19) Time (NOAA-19) Lat,Lon (NOAA-19) SZA (NOAA-19 ) Date (TERRA) Time (TERRA) Lat,Lon (TERRA) SZA (TERRA ) Distance(km) Time Diff (sec)
1 05/19/2016 08:53:07 -74.03,-127.41 125.82 05/19/2016 08:54:17 -73.96,-126.01 125.82 43.50 70
2 05/19/2016 09:43:57 73.64, 40.86 53.82 05/19/2016 09:43:49 73.63, 40.89 53.81 1.65 8
3 05/21/2016 14:27:02 73.69, -30.00 53.42 05/21/2016 14:28:07 73.68, -30.07 53.42 2.68 65
4 05/21/2016 15:18:04 -73.62, 137.41 126.65 05/21/2016 15:17:36 -73.61, 137.41 126.67 1.44 28
5 05/23/2016 20:01:09 -73.70, 66.49 127.00 05/23/2016 20:01:53 -73.71, 66.55 126.99 1.83 44
6 05/23/2016 20:52:06 73.60,-126.01 52.91 05/23/2016 20:51:20 73.63,-125.98 52.92 2.57 46
7 05/26/2016 01:35:11 73.67, 163.12 52.58 05/26/2016 01:35:38 73.66, 163.02 52.57 3.21 27
8 05/26/2016 02:26:12 -73.59, -29.46 127.50 05/26/2016 02:25:07 -73.60, -29.49 127.51 1.08 65
9 05/28/2016 07:09:17 -73.69,-100.40 127.78 05/28/2016 07:09:24 -73.68,-100.39 127.79 0.96 7
10 05/28/2016 08:00:07 73.20, 68.02 51.79 05/28/2016 07:58:57 73.28, 66.41 51.78 52.61 70
11 05/30/2016 11:52:27 -74.03,-171.97 127.81 05/30/2016 11:53:38 -73.91,-170.97 127.87 33.60 71
12 05/30/2016 12:43:20 73.66, -3.80 51.86 05/30/2016 12:43:08 73.66, -3.85 51.86 1.86 12




NCC Satellite Simultaneous Nadir Overpasses (SNOs) Prediction Service
